EW8629 Weather Reports


Display with metric or nautical units.
time (UTC)temp
F
wind
direction
speed
MPH
gust
MPH
rain 1hr
in
rain 24hr
in
rain mn
in
humidity
%
barometer
mb
20181213040531 12 0.0 0.0 0.00 0.00 0.00 50 1029.9
20181213035527 12 0 0.0 1.0 0.00 0.00 0.00 48 1029.7
20181213034523 12 0.0 0.0 0.00 0.00 0.00 48 1029.9
20181213033519 13 284 0.0 1.0 0.00 0.00 0.00 47 1029.8
20181213032515 13 270 0.0 2.0 0.00 0.00 0.00 46 1029.7
20181213031611 13 260 1.0 3.0 0.00 0.00 0.00 46 1029.5
20181213030606 13 16 0.0 3.0 0.00 0.00 0.00 49 1029.3
20181213025602 13 17 0.0 2.0 0.00 0.00 0.00 49 1029.1
20181213024558 13 341 0.0 3.0 0.00 0.00 0.00 49 1028.9
20181213023554 13 63 0.0 3.0 0.00 0.00 0.00 49 1029.1
20181213022550 13 53 0.0 2.0 0.00 0.00 0.00 50 1029.0
20181213021546 14 270 0.0 2.0 0.00 0.00 0.00 49 1028.8
20181213020542 13 252 0.0 2.0 0.00 0.00 0.00 50 1028.5
20181213015538 14 307 0.0 2.0 0.00 0.00 0.00 50 1028.3
20181213014534 14 292 0.0 2.0 0.00 0.00 0.00 51 1028.2
20181213013530 13 0.0 0.0 0.00 0.00 0.00 52 1028.1
20181213012526 13 0.0 0.0 0.00 0.00 0.00 51 1028.0
20181213011522 14 0.0 0.0 0.00 0.00 0.00 48 1027.8
20181213010518 14 0.0 0.0 0.00 0.00 0.00 47 1027.7
20181213005614 15 270 0.0 2.0 0.00 0.00 0.00 46 1027.5
20181213004610 15 90 0.0 2.0 0.00 0.00 0.00 46 1027.4
20181213003605 15 0 0.0 1.0 0.00 0.00 0.00 44 1027.2
20181213002601 16 270 0.0 1.0 0.00 0.00 0.00 44 1027.0
20181213001557 16 0 0.0 2.0 0.00 0.00 0.00 42 1026.7
20181213000553 16 270 0.0 2.0 0.00 0.00 0.00 41 1026.4
20181212235549 17 90 0.0 4.0 0.00 0.00 0.00 41 1026.2
20181212234545 17 309 1.0 4.0 0.00 0.00 0.00 42 1025.7
20181212233539 17 21 0.0 2.0 0.00 0.00 0.00 42 1025.6
20181212232535 17 135 0.0 3.0 0.00 0.00 0.00 40 1025.5
20181212231530 17 7 1.0 6.0 0.00 0.00 0.00 41 1025.1
20181212230526 17 0 0.0 2.0 0.00 0.00 0.00 41 1024.7
20181212225522 18 30 1.0 4.0 0.00 0.00 0.00 41 1024.6
20181212224517 18 26 0.0 2.0 0.00 0.00 0.00 39 1024.3
20181212223614 19 139 1.0 4.0 0.00 0.00 0.00 40 1023.9
20181212222610 18 212 1.0 4.0 0.00 0.00 0.00 41 1023.7
20181212221605 19 315 1.0 4.0 0.00 0.00 0.00 43 1023.3
20181212220600 19 45 1.0 6.0 0.00 0.00 0.00 44 1023.3
20181212215556 19 45 0.0 2.0 0.00 0.00 0.00 46 1023.2
20181212214552 19 63 0.0 4.0 0.00 0.00 0.00 48 1023.1
20181212213548 20 0.0 0.0 0.00 0.00 0.00 47 1023.0
20181212212544 21 28 0.0 3.0 0.00 0.00 0.00 45 1022.6
20181212211540 21 72 0.0 2.0 0.00 0.00 0.00 44 1022.3
20181212210535 21 0 0.0 2.0 0.00 0.00 0.00 44 1022.2
20181212205531 22 0.0 0.0 0.00 0.00 0.00 44 1021.9
20181212204526 22 22 0.0 4.0 0.00 0.00 0.00 45 1021.6
20181212203521 23 331 0.0 4.0 0.00 0.00 0.00 44 1021.5
20181212202517 23 128 1.0 5.0 0.00 0.00 0.00 43 1021.3
20181212201613 23 278 1.0 3.0 0.00 0.00 0.00 42 1021.2
20181212200609 24 14 1.0 5.0 0.00 0.00 0.00 42 1021.0
20181212195604 24 6 1.0 4.0 0.00 0.00 0.00 42 1020.8
20181212194600 24 236 1.0 4.0 0.00 0.00 0.00 41 1020.6
20181212193556 24 248 1.0 6.0 0.00 0.00 0.00 41 1020.4
20181212192551 24 12 3.0 8.0 0.00 0.00 0.00 41 1020.1
20181212191546 25 353 2.0 8.0 0.00 0.00 0.00 40 1019.9
20181212190543 25 355 3.0 6.0 0.00 0.00 0.00 40 1019.6
20181212185538 25 191 3.0 8.0 0.00 0.00 0.00 42 1019.3
20181212184534 25 347 3.0 7.0 0.00 0.00 0.00 42 1019.2
20181212183531 26 303 3.0 6.0 0.00 0.00 0.00 43 1019.1
20181212182526 26 274 2.0 6.0 0.00 0.00 0.00 43 1018.9
20181212181522 25 288 2.0 6.0 0.00 0.00 0.00 44 1019.0
20181212180519 26 261 1.0 5.0 0.00 0.00 0.00 44 1018.9
20181212175615 25 65 2.0 6.0 0.00 0.00 0.00 44 1018.9
20181212174611 26 351 2.0 6.0 0.00 0.00 0.00 45 1018.9
20181212173607 26 10 3.0 8.0 0.00 0.00 0.00 45 1018.8
20181212172602 25 51 2.0 6.0 0.00 0.00 0.00 46 1018.7
20181212171558 24 301 4.0 9.0 0.00 0.00 0.00 49 1018.7
20181212170553 25 3 3.0 7.0 0.00 0.00 0.00 47 1018.5
20181212165549 24 30 2.0 6.0 0.00 0.00 0.00 49 1018.5
20181212164546 24 352 3.0 11.0 0.00 0.00 0.00 49 1018.4
20181212163539 24 118 2.0 7.0 0.00 0.00 0.00 50 1018.3
20181212162535 23 2 1.0 4.0 0.00 0.00 0.00 51 1018.3
20181212161530 23 81 2.0 7.0 0.00 0.00 0.00 50 1018.4
20181212160526 23 257 3.0 11.0 0.00 0.00 0.00 51 1018.5
20181212155521 23 330 3.0 5.0 0.00 0.00 0.00 52 1018.5
20181212154517 23 214 2.0 7.0 0.00 0.00 0.00 53 1018.6
20181212153612 23 112 2.0 5.0 0.00 0.00 0.00 53 1018.7
20181212152608 23 6 1.0 6.0 0.00 0.00 0.00 55 1018.8
20181212151604 22 17 2.0 5.0 0.00 0.00 0.00 57 1018.8
20181212150600 21 40 2.0 6.0 0.00 0.00 0.00 57 1018.8
20181212145556 21 354 2.0 8.0 0.00 0.00 0.00 59 1018.8
20181212144552 21 41 1.0 3.0 0.00 0.00 0.00 61 1018.6
20181212143548 20 320 2.0 7.0 0.00 0.00 0.00 62 1018.6
20181212142545 19 3 1.0 3.0 0.00 0.00 0.00 61 1018.5
20181212141541 19 22 2.0 6.0 0.00 0.00 0.00 63 1018.3
20181212140536 19 62 1.0 3.0 0.00 0.00 0.00 63 1018.1
20181212135530 19 100 1.0 4.0 0.00 0.00 0.00 61 1017.9
20181212134526 19 19 1.0 3.0 0.00 0.00 0.00 59 1017.8
20181212133522 18 37 0.0 3.0 0.00 0.00 0.00 59 1017.7
20181212132518 18 53 1.0 4.0 0.00 0.00 0.00 59 1017.5
20181212131614 18 14 1.0 4.0 0.00 0.00 0.00 59 1017.3
20181212130610 18 352 2.0 5.0 0.00 0.00 0.00 58 1017.0
20181212125606 18 197 1.0 3.0 0.00 0.00 0.00 58 1017.0
20181212124600 18 309 1.0 3.0 0.00 0.00 0.00 58 1016.8
20181212123556 18 123 0.0 3.0 0.00 0.00 0.00 57 1016.4
20181212122552 18 0 0.0 3.0 0.00 0.00 0.00 57 1016.4
20181212121547 18 30 1.0 3.0 0.00 0.00 0.00 57 1016.1
20181212120541 18 210 0.0 2.0 0.00 0.00 0.00 56 1016.0
20181212115537 18 342 1.0 4.0 0.00 0.00 0.00 56 1015.9
20181212114533 18 0 0.0 1.0 0.00 0.00 0.00 56 1015.8
20181212113529 18 0.0 0.0 0.00 0.00 0.00 56 1015.7
20181212112525 18 292 0.0 2.0 0.00 0.00 0.00 56 1015.5
20181212111521 17 0 0.0 2.0 0.00 0.00 0.00 56 1015.4
20181212110517 17 292 1.0 3.0 0.00 0.00 0.00 57 1015.3
20181212105613 17 22 0.0 2.0 0.00 0.00 0.00 58 1015.2
20181212104608 17 25 1.0 4.0 0.00 0.00 0.00 59 1015.1
20181212103604 17 288 1.0 3.0 0.00 0.00 0.00 59 1014.9
20181212102600 16 304 0.0 2.0 0.00 0.00 0.00 59 1014.9
20181212101556 16 0 0.0 2.0 0.00 0.00 0.00 60 1014.9
20181212100552 16 0 0.0 2.0 0.00 0.00 0.00 60 1014.9
20181212095548 16 303 0.0 2.0 0.00 0.00 0.00 60 1014.8
20181212094544 15 315 0.0 3.0 0.00 0.00 0.00 62 1014.7
20181212093540 15 0.0 1.0 0.00 0.00 0.00 64 1014.6
20181212092536 15 0 0.0 2.0 0.00 0.00 0.00 64 1014.5
20181212091532 15 0 0.0 1.0 0.00 0.00 0.00 65 1014.4
20181212090527 14 0.0 0.0 0.00 0.00 0.00 64 1014.3
20181212085524 14 0.0 0.0 0.00 0.00 0.00 63 1014.3
20181212084519 15 0 0.0 2.0 0.00 0.00 0.00 63 1014.3
20181212083516 15 341 0.0 1.0 0.00 0.00 0.00 63 1014.3
20181212082612 15 0 0.0 2.0 0.00 0.00 0.00 63 1014.2
20181212081608 15 325 1.0 2.0 0.00 0.00 0.00 62 1014.3
20181212080604 15 308 0.0 3.0 0.00 0.00 0.00 62 1014.4
20181212075559 15 180 0.0 2.0 0.00 0.00 0.00 62 1014.4
20181212074555 15 90 0.0 2.0 0.00 0.00 0.00 63 1014.4
20181212073551 15 180 0.0 2.0 0.00 0.00 0.00 62 1014.5
20181212072547 15 0 0.0 2.0 0.00 0.00 0.00 62 1014.4
20181212071543 16 30 0.0 2.0 0.00 0.00 0.00 62 1014.4
20181212070539 16 0 0.0 2.0 0.00 0.00 0.00 62 1014.4
20181212065535 16 270 1.0 5.0 0.00 0.00 0.00 62 1014.4
20181212064531 16 270 0.0 2.0 0.00 0.00 0.00 62 1014.3
20181212063527 16 287 0.0 2.0 0.00 0.00 0.00 62 1014.2
20181212062523 16 323 0.0 3.0 0.00 0.00 0.00 62 1014.1
20181212061519 17 289 1.0 2.0 0.00 0.00 0.00 63 1014.1
20181212060615 17 0 1.0 3.0 0.00 0.00 0.00 63 1014.1
20181212055611 17 341 0.0 2.0 0.00 0.00 0.00 63 1014.1
20181212054606 17 282 0.0 2.0 0.00 0.00 0.00 63 1014.1
20181212053601 18 287 1.0 2.0 0.00 0.00 0.00 63 1014.1
20181212052557 18 297 1.0 6.0 0.00 0.00 0.00 63 1014.0
20181212051553 18 0 0.0 2.0 0.00 0.00 0.00 63 1014.2
20181212050548 18 274 1.0 2.0 0.00 0.00 0.00 64 1014.4
20181212045545 18 300 0.0 2.0 0.00 0.00 0.00 64 1014.5
20181212044541 19 270 0.0 1.0 0.00 0.00 0.00 64 1014.8
20181212043536 19 337 0.0 2.0 0.00 0.00 0.00 68 1014.9
20181212042532 19 333 0.0 2.0 0.00 0.00 0.00 67 1015.0
20181212041557 19 315 0.0 2.0 0.00 0.00 0.00 67 1015.1